TimeEST,TemperatureF,Dew PointF,Humidity,Sea Level PressureIn,VisibilityMPH,Wind Direction,Wind SpeedMPH,Gust SpeedMPH,PrecipitationIn,Events,Conditions,WindDirDegrees,DateUTC
12:55 AM,45.0,42.1,90,30.20,10.0,North,5.8,-,N/A,,Overcast,350,2012-11-20 05:55:00
1:55 AM,44.6,42.4,92,30.18,10.0,North,5.8,-,N/A,,Overcast,360,2012-11-20 06:55:00
2:55 AM,45.5,43.2,92,30.17,10.0,North,6.9,-,N/A,,Overcast,360,2012-11-20 07:55:00
3:55 AM,46.4,43.7,90,30.17,10.0,North,8.1,-,N/A,,Overcast,360,2012-11-20 08:55:00
4:55 AM,45.5,43.3,92,30.18,10.0,North,5.8,-,N/A,,Overcast,360,2012-11-20 09:55:00
5:55 AM,41.0,39.9,96,30.18,10.0,North,5.8,-,N/A,,Scattered Clouds,10,2012-11-20 10:55:00
6:53 AM,39.2,39.2,100,30.19,10.0,North,5.8,-,N/A,,Mostly Cloudy,350,2012-11-20 11:53:00
6:55 AM,40.1,39.7,99,30.19,9.0,North,5.8,-,N/A,,Mostly Cloudy,350,2012-11-20 11:55:00
7:21 AM,42.8,42.8,100,30.18,9.0,NNE,3.5,-,N/A,,Overcast,20,2012-11-20 12:21:00
7:39 AM,42.8,42.8,100,30.18,10.0,NNE,3.5,-,N/A,,Mostly Cloudy,20,2012-11-20 12:39:00
7:46 AM,42.8,42.8,100,30.18,10.0,North,3.5,-,N/A,,Scattered Clouds,350,2012-11-20 12:46:00
7:55 AM,44.6,43.5,96,30.19,10.0,Calm,Calm,-,N/A,,Partly Cloudy,0,2012-11-20 12:55:00
8:55 AM,47.5,41.2,79,30.19,10.0,ENE,10.4,-,N/A,,Partly Cloudy,70,2012-11-20 13:55:00
9:55 AM,48.7,39.9,72,30.18,10.0,NE,6.9,-,N/A,,Partly Cloudy,50,2012-11-20 14:55:00
10:55 AM,49.5,40.3,71,30.17,10.0,North,4.6,-,N/A,,Clear,360,2012-11-20 15:55:00
11:55 AM,50.4,39.7,67,30.14,10.0,NNW,3.5,-,N/A,,Clear,330,2012-11-20 16:55:00
12:55 PM,51.3,38.1,61,30.12,10.0,NNW,6.9,-,N/A,,Clear,340,2012-11-20 17:55:00
1:55 PM,50.9,36.7,58,30.11,10.0,North,8.1,-,N/A,,Clear,360,2012-11-20 18:55:00
2:55 PM,50.9,37.9,61,30.10,10.0,North,8.1,-,N/A,,Clear,360,2012-11-20 19:55:00
3:55 PM,49.1,37.9,65,30.11,10.0,NNW,6.9,-,N/A,,Clear,340,2012-11-20 20:55:00
4:55 PM,46.4,36.9,69,30.10,10.0,NNW,5.8,-,N/A,,Clear,330,2012-11-20 21:55:00
5:55 PM,43.0,35.4,75,30.10,10.0,North,8.1,-,N/A,,Clear,360,2012-11-20 22:55:00
6:55 PM,46.2,33.8,62,30.11,10.0,NNE,6.9,-,N/A,,Clear,20,2012-11-20 23:55:00
7:55 PM,44.2,34.5,69,30.13,10.0,North,6.9,-,N/A,,Clear,10,2012-11-21 00:55:00
8:55 PM,44.6,35.8,71,30.13,10.0,ENE,6.9,-,N/A,,Scattered Clouds,70,2012-11-21 01:55:00
9:55 PM,42.4,38.1,85,30.14,10.0,ENE,4.6,-,N/A,,Overcast,60,2012-11-21 02:55:00
10:55 PM,43.0,36.7,78,30.13,10.0,NE,3.5,-,N/A,,Overcast,50,2012-11-21 03:55:00
11:55 PM,40.3,36.1,85,30.13,10.0,NNW,6.9,-,N/A,,Overcast,330,2012-11-21 04:55:00